Powrót do katalogu

FENGYUN 1C DEB

AktywnyPO
NORAD 30345·DEBRIS·🇨🇳 China

Wystrzelony May 10, 1999 z Taiyuan Satellite Launch Center

Loading…

Następne Przeloty (najbliższe 24 godziny)

TLE

ŚwieżeSource: Space-Track

Epoka: Sep 13, 2026, 04:02 UTC

1 30345U 99025ABG 26256.16820763  .00003419  00000-0  99809-3 0  9999
2 30345  98.9066 333.1703 0017988 149.7452 210.4780 14.44675974 17337

Śledź FENGYUN 1C DEB w czasie rzeczywistym z AllMySat

Download on the App Store